Terug naar catalogus

STARLINK-4071

ActiefCommunicatieVLEO
NORAD 52671·PAYLOAD·🇺🇸 United States

Gelanceerd May 18, 2022 vanaf Cape Canaveral Space Force Station

Loading…

Volgende Passages (komende 24 uur)

TLE

VersSource: CelesTrak SupGP

Epoch: Sep 15, 2026, 01:39 UTC

1 52671C 22053R   26258.06923611 -.00020111  00000+0 -12615-2 0  2585
2 52671  53.1603  23.3321 0001208  88.3712 158.9379 15.08837335    11

Volg STARLINK-4071 in realtime met AllMySat

Download on the App Store